Location: Nebula Knoll Observatory
(43.6666°N, 71.0000°W)
Time: 20:06:06
(UTC-04:00)

Cosmos 1782 - Visible Passes

Search period start: 07 July 2015 00:00
Search period end: 17 July 2015 00:00
Orbit: 544 x 558 km, 82.5° (Epoch: 06 July)

Date Brightness Start Highest point End Pass type
(mag) Time Alt. Az. Time Alt. Az. Time Alt. Az.
07 Jul 5.3 21:49:55 10° ENE 21:50:10 10° ENE 21:50:38 10° ENE visible
07 Jul 2.9 23:23:12 10° NNW 23:27:15 70° W 23:27:48 60° SSW visible
08 Jul 5.1 21:45:06 10° NE 21:46:13 11° ENE 21:47:33 10° E visible
08 Jul 3.0 23:19:12 10° NNW 23:23:14 62° W 23:23:54 53° SW visible
09 Jul 5.1 21:40:41 10° NE 21:42:16 12° ENE 21:44:02 10° E visible
09 Jul 3.2 23:15:13 10° NNW 23:19:12 56° W 23:20:00 46° SW visible
10 Jul 5.0 21:36:23 10° NE 21:38:18 13° ENE 21:40:22 10° E visible
10 Jul 3.4 23:11:15 10° NNW 23:15:11 50° W 23:16:07 40° SW visible
11 Jul 4.9 21:32:07 10° NE 21:34:21 15° ENE 21:36:30 11° E visible
11 Jul 3.6 23:07:16 10° NNW 23:11:09 45° W 23:12:15 35° SW visible
12 Jul 4.8 21:27:55 10° NNE 21:30:22 16° ENE 21:32:39 11° ESE visible
12 Jul 3.8 23:03:17 10° NNW 23:07:07 41° W 23:08:24 31° SW visible
13 Jul 4.7 21:23:43 10° NNE 21:26:24 17° ENE 21:28:48 11° ESE visible
13 Jul 4.0 22:59:20 10° NNW 23:03:05 37° W 23:04:32 27° SW visible
14 Jul 4.6 21:19:33 10° NNE 21:22:25 19° ENE 21:24:58 12° ESE visible
14 Jul 4.2 22:55:22 10° NNW 22:59:02 33° W 23:00:43 23° SW visible
15 Jul 4.4 21:15:24 10° NNE 21:18:27 21° ENE 21:21:10 12° ESE visible
15 Jul 4.3 22:51:24 10° NNW 22:54:59 30° W 22:56:54 20° SW visible
16 Jul 4.3 21:11:16 10° NNE 21:14:27 22° ENE 21:17:22 11° ESE visible
16 Jul 4.5 22:47:28 10° NNW 22:50:56 28° W 22:53:06 17° SW visible
